Погода в Придорожном

Россия / Амурская область     50°03′49″N   128°10′01″E
темп.,
°C
ветер,
м/с
пор.,
м/с
влажн.,
%
обл.,
%
осадки,
мм/ч
давл.,
гПа
погр.,
м
8 августа, пн
пн800:00+17зюз379633 0.2 996191
03:00+14зсз411960 0.2 997303
06:00+13зюз35960 0.0 998119
09:00+17зюз58725 0.0 998606
12:00+20з81252100 0.0 9972105
15:00+19зсз511575 0.0 9971361
18:00+15с488822 1.0 997168
21:00+13ю22865 1.1 99723
9 августа, вт
вт900:00+12ю459067 0.1 99671
03:00+11ююз359331 0.1 99573
06:00+12зюз399192 0.0 995283
09:00+14з4990100 0.6 995628
12:00+18з6766100 0.2 9941276
15:00+17з4769100 0.4 994999
18:00+13зсз41092100 1.0 995487
21:00+13з51093100 1.6 995511
10 августа, ср
ср1000:00+12з41196100 1.4 994492
03:00+12з41095100 1.8 994582
06:00+12зсз4896100 0.0 995377
09:00+15сз4583100 0.1 995705
12:00+17зсз4473100 0.3 9961015
15:00+16з358561 1.7 997540
18:00+15зсз369096 2.1 997302
21:00+13зсз36950 2.4 999108
11 августа, чт
чт1100:00+12зсз34950 0.0 99967
03:00+11зсз2295100 0.0 100035
06:00+11зсз2396100 0.0 100158
09:00+16зсз33845 0.0 1001417
12:00+20сз336972 0.6 10001102
15:00+20зсз237097 3.7 10001028
18:00+20зсз237255 0.3 1000597
21:00+14зсз118747 3.0 100111
12 августа, пт
пт1200:00+13сз22925 1.0 100216
03:00+12зсз33925 1.0 100230
06:00+11зсз239311 0.0 100342
09:00+16зсз23795 0.0 1003396
12:00+21зсз45605 0.1 10031220
15:00+21сз346863 1.8 10021176
18:00+21сз23745 0.7 1002736
21:00+16зюз228259 1.8 100312